Weather History for Hickory, NC

Change the Weather History Date:

Friday, May 17, 2013

  Actual Average Record
Temperature  
Mean Temperature 70 °F -  
Max Temperature 84 °F 76 °F 89 °F (1962)
Min Temperature 59 °F 54 °F 41 °F (1997)
Cooling Degree Days 6    
Growing Degree Days 20 (Base 50)    
Moisture  
Dew Point 57 °F    
Average Humidity 63    
Maximum Humidity 90    
Minimum Humidity 42    
Precipitation  
Precipitation 0.00 in - - ()
Sea Level Pressure  
Sea Level Pressure 30.02 in    
Wind  
Wind Speed 2 mph (WSW)    
Max Wind Speed 8 mph    
Max Gust Speed 16 mph    
Visibility 10 miles    
Events      
Averages and records for this station are not official NWS values.
T = Trace of Precipitation, MM = Missing Value Source: NWS Daily Summary

Daily Weather History Graph

Daily Weather History Graph

Search for Another Location

Airport:

Trip Planner

Search our weather history database for the weather conditions in past years. The results will help you decide how hot, cold, wet, or windy it might be!

Date:

Astronomy

May. 17, 2013 Rise Set
Actual Time 6:18 AM EDT 8:25 PM EDT
Civil Twilight 5:50 AM EDT 8:54 PM EDT
Nautical Twilight 5:15 AM EDT 9:29 PM EDT
Astronomical Twilight 4:37 AM EDT 10:07 PM EDT
Moon 12:44 PM EDT (5/17) 1:22 AM EDT (5/17)
Length of Visible Light 15h 04m
Length of Day
14h 07m
Waxing Crescent, 45% of the Moon is Illuminated
May 17
Waxing Crescent
May 18
First Quarter
May 25
Full
May 31
Last Quarter
Jun 8
New

Hourly Weather History & Observations

Time (EDT) Temp. Heat Index Dew Point Humidity Pressure Visibility Wind Dir Wind Speed Gust Speed Precip Events Conditions
12:53 AM 63.0 °F - 57.9 °F 84% 29.98 in 10.0 mi Calm Calm - N/A   Clear
1:53 AM 62.1 °F - 57.9 °F 86% 29.97 in 10.0 mi Calm Calm - N/A   Clear
2:53 AM 62.1 °F - 59.0 °F 90% 29.97 in 10.0 mi Calm Calm - N/A   Clear
3:53 AM 60.1 °F - 57.0 °F 90% 29.98 in 10.0 mi WNW 4.6 mph - N/A   Clear
4:53 AM 59.0 °F - 54.0 °F 83% 29.99 in 10.0 mi West 3.5 mph - N/A   Clear
5:53 AM 59.0 °F - 54.0 °F 83% 30.01 in 10.0 mi Variable 3.5 mph - N/A   Mostly Cloudy
6:53 AM 60.1 °F - 52.0 °F 75% 30.03 in 10.0 mi NW 4.6 mph - N/A   Clear
8:53 AM 66.9 °F - 55.9 °F 68% 30.05 in 10.0 mi NW 5.8 mph - N/A   Clear
9:53 AM 71.1 °F - 57.9 °F 63% 30.06 in 10.0 mi Calm Calm - N/A   Clear
10:53 AM 75.9 °F - 55.0 °F 48% 30.05 in 10.0 mi Calm Calm - N/A   Partly Cloudy
11:53 AM 79.0 °F - 57.0 °F 47% 30.05 in 10.0 mi WSW 3.5 mph - N/A   Clear
12:53 PM 82.0 °F 82.1 °F 59.0 °F 45% 30.04 in 10.0 mi Calm Calm - N/A   Clear
1:53 PM 82.9 °F 82.6 °F 57.9 °F 42% 30.03 in 10.0 mi Variable 3.5 mph - N/A   Partly Cloudy
3:53 PM 82.0 °F 81.7 °F 57.0 °F 42% 30.01 in 10.0 mi SSW 6.9 mph - N/A   Scattered Clouds
4:53 PM 81.0 °F 80.8 °F 55.9 °F 42% 29.99 in 10.0 mi South 6.9 mph - N/A   Partly Cloudy
5:53 PM 81.0 °F 81.6 °F 60.1 °F 49% 29.99 in 10.0 mi Variable 5.8 mph - N/A   Clear
6:53 PM 79.0 °F - 57.9 °F 48% 29.99 in 10.0 mi SSW 8.1 mph 16.1 mph N/A   Partly Cloudy
7:53 PM 77.0 °F - 57.9 °F 52% 30.01 in 10.0 mi South 3.5 mph - N/A   Partly Cloudy
8:53 PM 73.0 °F - 57.9 °F 59% 30.02 in 10.0 mi Calm Calm - N/A   Clear
9:53 PM 72.0 °F - 57.9 °F 61% 30.03 in 10.0 mi South 3.5 mph - N/A   Clear
10:53 PM 71.1 °F - 59.0 °F 66% 30.04 in 10.0 mi WSW 3.5 mph - N/A   Partly Cloudy
11:53 PM 68.0 °F - 59.0 °F 73% 30.04 in 10.0 mi Calm Calm - N/A   Clear